| time (UTC) | temp F | wind direction | speed MPH | gust MPH | rain 1hr in | rain 24hr in | rain mn in | humidity % | barometer mb |
| 20260506014508 | 48 | 276 | 0.0 | 0.0 | 0.00 | 0.00 | 0.00 | 99 | 1007.1 |
| 20260506013342 | 48 | 216 | 0.0 | 0.0 | 0.00 | 0.00 | 0.00 | 99 | 1007.2 |
| 20260506012227 | 48 | 156 | 0.0 | 0.0 | 0.00 | 0.00 | 0.00 | 99 | 1007.2 |
| 20260506011046 | 48 | 198 | 0.0 | 0.0 | 0.00 | 0.00 | 0.00 | 99 | 1007.3 |
| 20260506005918 | 47 | 216 | 0.0 | 0.0 | 0.00 | 0.00 | 0.00 | 99 | 1007.4 |
| 20260506004750 | 47 | 210 | 0.0 | 0.0 | 0.00 | 0.00 | 0.00 | 99 | 1007.6 |
| 20260506003622 | 47 | 216 | 0.0 | 0.0 | 0.00 | 0.00 | 0.00 | 99 | 1007.7 |
| 20260506002454 | 47 | 222 | 0.0 | 0.0 | 0.00 | 0.00 | 0.00 | 99 | 1007.6 |
| 20260506001326 | 47 | 174 | 0.0 | 0.0 | 0.00 | 0.00 | 0.00 | 99 | 1007.8 |
| 20260506000212 | 47 | 192 | 0.0 | 0.0 | 0.00 | 0.00 | 0.00 | 99 | 1007.6 |
| 20260505235030 | 48 | 192 | 0.0 | 0.0 | 0.00 | 0.00 | 0.00 | 99 | 1007.7 |
| 20260505233903 | 48 | 252 | 0.0 | 0.0 | 0.00 | 0.00 | 0.00 | 98 | 1007.9 |
| 20260505232735 | 48 | 198 | 0.0 | 0.0 | 0.00 | 0.00 | 0.00 | 99 | 1008.1 |
| 20260505231603 | 48 | 234 | 0.0 | 1.0 | 0.00 | 0.00 | 0.00 | 99 | 1008.1 |
| 20260505223939 | 48 | 354 | 0.0 | 1.0 | 0.00 | 0.00 | 0.03 | 99 | 1008.3 |
| 20260505222812 | 48 | 210 | 1.0 | 1.0 | 0.00 | 0.00 | 0.03 | 98 | 1008.3 |
| 20260505221556 | 48 | 240 | 0.0 | 0.0 | 0.00 | 0.00 | 0.03 | 98 | 1008.4 |
| 20260505220415 | 49 | 210 | 0.0 | 0.0 | 0.00 | 0.00 | 0.03 | 98 | 1008.3 |
| 20260505215246 | 49 | 234 | 0.0 | 0.0 | 0.00 | 0.00 | 0.03 | 98 | 1008.4 |
| 20260505214119 | 49 | 168 | 0.0 | 1.0 | 0.00 | 0.00 | 0.03 | 97 | 1008.5 |
| 20260505212951 | 49 | 150 | 0.0 | 0.0 | 0.00 | 0.00 | 0.03 | 98 | 1008.4 |
| 20260505211735 | 49 | 6 | 0.0 | 0.0 | 0.00 | 0.00 | 0.03 | 98 | 1008.6 |
| 20260505210554 | 49 | 270 | 0.0 | 0.0 | 0.00 | 0.00 | 0.03 | 96 | 1008.6 |
| 20260505205428 | 50 | 198 | 0.0 | 0.0 | 0.00 | 0.00 | 0.03 | 96 | 1008.6 |
| 20260505204301 | 50 | 354 | 0.0 | 0.0 | 0.00 | 0.00 | 0.03 | 96 | 1008.6 |
| 20260505203133 | 50 | 180 | 0.0 | 0.0 | 0.00 | 0.00 | 0.03 | 97 | 1008.6 |
| 20260505202005 | 51 | 246 | 0.0 | 0.0 | 0.00 | 0.00 | 0.03 | 97 | 1008.5 |
| 20260505200838 | 51 | 18 | 0.0 | 0.0 | 0.00 | 0.00 | 0.03 | 97 | 1008.3 |
| 20260505195723 | 51 | 216 | 0.0 | 0.0 | 0.00 | 0.00 | 0.03 | 97 | 1008.2 |
| 20260505194541 | 51 | 258 | 0.0 | 0.0 | 0.00 | 0.00 | 0.03 | 96 | 1008.0 |
| 20260505193414 | 52 | 204 | 0.0 | 0.0 | 0.00 | 0.00 | 0.03 | 95 | 1007.9 |
| 20260505192245 | 53 | 252 | 0.0 | 0.0 | 0.00 | 0.00 | 0.03 | 94 | 1007.8 |
| 20260505191118 | 53 | 204 | 0.0 | 0.0 | 0.00 | 0.00 | 0.03 | 93 | 1007.7 |
| 20260505185950 | 54 | 258 | 0.0 | 0.0 | 0.00 | 0.00 | 0.03 | 92 | 1007.5 |
| 20260505184823 | 55 | 258 | 0.0 | 0.0 | 0.00 | 0.00 | 0.03 | 91 | 1007.2 |
| 20260505183709 | 56 | 228 | 0.0 | 0.0 | 0.00 | 0.00 | 0.03 | 90 | 1007.4 |
| 20260505182528 | 57 | 240 | 0.0 | 0.0 | 0.00 | 0.00 | 0.03 | 88 | 1007.2 |
| 20260505181400 | 57 | 12 | 0.0 | 0.0 | 0.00 | 0.00 | 0.03 | 87 | 1007.0 |
| 20260505180232 | 57 | 300 | 0.0 | 0.0 | 0.00 | 0.00 | 0.03 | 87 | 1007.2 |
| 20260505175106 | 57 | 18 | 0.0 | 0.0 | 0.00 | 0.00 | 0.03 | 88 | 1007.2 |
| 20260505173850 | 58 | 0 | 0.0 | 0.0 | 0.00 | 0.00 | 0.03 | 87 | 1007.0 |
| 20260505172708 | 58 | 306 | 0.0 | 0.0 | 0.00 | 0.00 | 0.03 | 85 | 1006.8 |
| 20260505171540 | 58 | 282 | 0.0 | 0.0 | 0.00 | 0.00 | 0.03 | 82 | 1006.8 |
| 20260505170413 | 59 | 174 | 1.0 | 1.0 | 0.00 | 0.00 | 0.03 | 84 | 1006.7 |
| 20260505165246 | 60 | 204 | 0.0 | 1.0 | 0.00 | 0.00 | 0.03 | 79 | 1006.7 |
| 20260505164029 | 61 | 192 | 0.0 | 1.0 | 0.00 | 0.00 | 0.03 | 77 | 1006.8 |
| 20260505162847 | 59 | 222 | 0.0 | 3.0 | 0.01 | 0.00 | 0.03 | 77 | 1007.0 |
| 20260505161719 | 59 | 168 | 3.0 | 4.0 | 0.01 | 0.00 | 0.03 | 82 | 1007.2 |
| 20260505160552 | 58 | 186 | 3.0 | 3.0 | 0.01 | 0.00 | 0.03 | 82 | 1007.1 |
| 20260505153131 | 58 | 162 | 2.0 | 4.0 | 0.02 | 0.00 | 0.03 | 78 | 1007.0 |
| 20260505152016 | 59 | 204 | 4.0 | 5.0 | 0.01 | 0.00 | 0.02 | 74 | 1006.9 |
| 20260505150835 | 60 | 306 | 3.0 | 4.0 | 0.01 | 0.00 | 0.02 | 75 | 1006.7 |
| 20260505130140 | 64 | 348 | 1.0 | 2.0 | 0.00 | 0.00 | 0.01 | 63 | 1007.0 |
| 20260505124957 | 65 | 60 | 2.0 | 2.0 | 0.00 | 0.00 | 0.01 | 65 | 1006.6 |
| 20260505123829 | 63 | 6 | 0.0 | 2.0 | 0.00 | 0.00 | 0.01 | 69 | 1006.8 |
| 20260505122700 | 64 | 210 | 2.0 | 4.0 | 0.00 | 0.00 | 0.01 | 69 | 1007.2 |
| 20260505121534 | 63 | 282 | 0.0 | 3.0 | 0.00 | 0.00 | 0.01 | 75 | 1007.2 |
| 20260505120318 | 63 | 12 | 0.0 | 2.0 | 0.00 | 0.00 | 0.01 | 72 | 1007.1 |
| 20260505115137 | 62 | 171 | 2.0 | 2.0 | 0.00 | 0.00 | 0.01 | 74 | 1007.1 |
| 20260505114008 | 60 | 198 | 0.0 | 0.0 | 0.00 | 0.00 | 0.01 | 74 | 1007.3 |
| 20260505112841 | 61 | 246 | 0.0 | 1.0 | 0.00 | 0.00 | 0.01 | 80 | 1007.2 |
| 20260505111713 | 60 | 12 | 0.0 | 0.0 | 0.00 | 0.00 | 0.01 | 80 | 1007.6 |
| 20260505110545 | 59 | 216 | 0.0 | 2.0 | 0.00 | 0.00 | 0.01 | 83 | 1007.6 |
| 20260505101958 | 59 | 72 | 1.0 | 2.0 | 0.00 | 0.00 | 0.01 | 78 | 1007.6 |
| 20260505100832 | 58 | 228 | 0.0 | 1.0 | 0.00 | 0.00 | 0.01 | 80 | 1007.6 |
| 20260505095705 | 58 | 240 | 0.0 | 1.0 | 0.00 | 0.00 | 0.01 | 77 | 1007.6 |
| 20260505094449 | 58 | 150 | 0.0 | 0.0 | 0.00 | 0.00 | 0.01 | 77 | 1007.5 |
| 20260505093254 | 58 | 228 | 0.0 | 1.0 | 0.00 | 0.00 | 0.01 | 79 | 1007.5 |
| 20260505092115 | 59 | 222 | 0.0 | 0.0 | 0.00 | 0.00 | 0.01 | 79 | 1007.6 |
| 20260505090910 | 57 | 229 | 0.0 | 0.0 | 0.00 | 0.00 | 0.01 | 81 | 1007.8 |
| 20260505085742 | 58 | 228 | 0.0 | 0.0 | 0.01 | 0.00 | 0.01 | 81 | 1007.8 |
| 20260505084526 | 57 | 0 | 0.0 | 2.0 | 0.01 | 0.00 | 0.01 | 85 | 1007.8 |
| 20260505083345 | 56 | 54 | 0.0 | 0.0 | 0.01 | 0.00 | 0.01 | 86 | 1007.8 |
| 20260505082205 | 55 | 348 | 0.0 | 0.0 | 0.01 | 0.00 | 0.01 | 87 | 1008.1 |
| 20260505081039 | 55 | 210 | 0.0 | 1.0 | 0.01 | 0.00 | 0.01 | 88 | 1008.2 |
| 20260505075911 | 55 | 222 | 0.0 | 1.0 | 0.01 | 0.00 | 0.01 | 87 | 1008.4 |
| 20260505074731 | 55 | 210 | 0.0 | 2.0 | 0.00 | 0.00 | 0.00 | 88 | 1008.5 |
| 20260505073605 | 55 | 186 | 0.0 | 1.0 | 0.00 | 0.00 | 0.00 | 87 | 1008.6 |
| 20260505072438 | 55 | 216 | 0.0 | 0.0 | 0.00 | 0.00 | 0.00 | 86 | 1008.6 |
| 20260505071257 | 55 | 246 | 0.0 | 0.0 | 0.00 | 0.00 | 0.00 | 85 | 1008.6 |
| 20260505070129 | 54 | 240 | 0.0 | 0.0 | 0.00 | 0.00 | 0.00 | 86 | 1008.7 |
| 20260505065003 | 54 | 229 | 0.0 | 0.0 | 0.00 | 0.00 | 0.00 | 89 | 1008.7 |
| 20260505063834 | 54 | 216 | 0.0 | 1.0 | 0.00 | 0.00 | 0.00 | 88 | 1008.8 |
| 20260505062706 | 54 | 264 | 0.0 | 1.0 | 0.00 | 0.00 | 0.00 | 89 | 1008.9 |
| 20260505061538 | 53 | 18 | 0.0 | 0.0 | 0.00 | 0.00 | 0.00 | 90 | 1008.9 |
| 20260505055014 | 52 | 216 | 0.0 | 0.0 | 0.00 | 0.00 | 0.00 | 92 | 1008.9 |
| 20260505053845 | 52 | 228 | 0.0 | 0.0 | 0.00 | 0.00 | 0.00 | 91 | 1008.9 |
| 20260505052718 | 51 | 222 | 0.0 | 0.0 | 0.00 | 0.00 | 0.00 | 95 | 1008.9 |
| 20260505051550 | 51 | 264 | 0.0 | 0.0 | 0.00 | 0.00 | 0.00 | 95 | 1008.9 |
| 20260505050334 | 50 | 318 | 0.0 | 0.0 | 0.00 | 0.00 | 0.00 | 95 | 1008.9 |
| 20260505041731 | 49 | 12 | 0.0 | 0.0 | 0.00 | 0.00 | 0.00 | 97 | 1009.0 |
| 20260505040550 | 49 | 12 | 0.0 | 0.0 | 0.00 | 0.00 | 0.00 | 96 | 1008.9 |
| 20260505035410 | 49 | 228 | 0.0 | 0.0 | 0.00 | 0.00 | 0.00 | 97 | 1008.9 |
| 20260505034247 | 49 | 18 | 0.0 | 0.0 | 0.00 | 0.00 | 0.00 | 98 | 1009.0 |
| 20260505033103 | 49 | 204 | 0.0 | 0.0 | 0.00 | 0.00 | 0.00 | 97 | 1009.1 |
| 20260505031923 | 49 | 210 | 0.0 | 0.0 | 0.00 | 0.00 | 0.00 | 97 | 1009.1 |
| 20260505030755 | 49 | 186 | 0.0 | 0.0 | 0.00 | 0.00 | 0.00 | 98 | 1009.2 |
| 20260505025601 | 49 | 30 | 0.0 | 0.0 | 0.00 | 0.00 | 0.00 | 98 | 1009.3 |
| 20260505024434 | 49 | 180 | 0.0 | 0.0 | 0.00 | 0.00 | 0.00 | 97 | 1009.4 |
| 20260505023305 | 49 | 108 | 0.0 | 0.0 | 0.00 | 0.00 | 0.00 | 97 | 1009.5 |
| 20260505022138 | 49 | 108 | 0.0 | 0.0 | 0.00 | 0.00 | 0.00 | 97 | 1009.6 |
| 20260505020944 | 50 | 24 | 0.0 | 0.0 | 0.00 | 0.00 | 0.00 | 97 | 1009.6 |
| 20260505015816 | 49 | 306 | 0.0 | 0.0 | 0.00 | 0.00 | 0.00 | 98 | 1009.5 |
| 20260505014637 | 49 | 264 | 0.0 | 0.0 | 0.00 | 0.00 | 0.00 | 97 | 1009.6 |